Location: Barruelo
(41.2448°N, 3.8231°W)
Time: 08:15:40
(UTC+00:00)

Cosmos 2227 Rocket - Pass Details

Date: 14 March 2026
Orbit: 836 x 845 km, 71.0° (Epoch: 18 April)

Event Time Altitude Azimuth Distance (km) Brightness Sun altitude
Rises 22:02:46 0° 343° (NNW) 3,413 6.0 -39.7°
Reaches altitude 10° 22:05:29 10° 353° (N) 2,475 5.1 -40.0°
Enters shadow 22:06:28 15° 359° (N) 2,166 4.7 -40.2°
